Regional Weather Roundup
Issued by NWS Charleston, WV

Home | Current Version | Previous Version | Graphics & Text | Print | Product List | Glossary On
Versions: 1 2 3 4 5 6 7 8 9 10 11 12 13 14 15 16 17 18 19 20 21 22 23 24 25 26 27 28 29
000
ASUS41 KRLX 200210
RWRRLX
West Virginia Regional Weather Roundup
National Weather Service Charleston WV
900 PM EST FRI JAN 19 2018

Note: "fair" indicates few or no clouds below 12,000 feet with no
significant weather and/or obstructions to visibility.

WVZ003-200300-
Northern Panhandle of West Virginia

CITY           SKY/WX    TMP DP  RH WIND       PRES   REMARKS
WHEELING         N/A     35  16  45 SW15G24   30.00F
$$

WVZ009-200300-
Northwest West Virginia

CITY           SKY/WX    TMP DP  RH WIND       PRES   REMARKS
PARKERSBURG      N/A     35  15  44 S6        30.09F
$$

WVZ006-200300-
Western West Virginia

CITY           SKY/WX    TMP DP  RH WIND       PRES   REMARKS
HUNTINGTON       N/A     38  12  34 S9        30.10S
$$

WVZ015-200300-
West Central West Virginia

CITY           SKY/WX    TMP DP  RH WIND       PRES   REMARKS
CHARLESTON       N/A     32  16  51 CALM      30.11R
$$

WVZ022-031-200300-
North Central West Virginia

CITY           SKY/WX    TMP DP  RH WIND       PRES   REMARKS
CLARKSBURG       N/A     34  16  47 S8        30.07S
MORGANTOWN       N/A     36  15  42 SW8       30.06S
$$

WVZ025-035-042-045-200300-
Southern West Virginia

CITY           SKY/WX    TMP DP  RH WIND       PRES   REMARKS
BECKLEY          N/A     34   7  32 SW10      30.09S
LOGAN            N/A     36  14  41 CALM      30.11S
BLUEFIELD        N/A     33   0  24 W13       30.11S
LEWISBURG        N/A     30   8  38 CALM      30.10S
$$

WVZ047-200300-
Northern Mountains of West Virginia

CITY           SKY/WX    TMP DP  RH WIND       PRES   REMARKS
ELKINS           N/A     25  19  78 CALM      30.08R
$$

WVZ052-200300-
Eastern Panhandle of West Virginia

CITY           SKY/WX    TMP DP  RH WIND       PRES   REMARKS
MARTINSBURG      N/A     43  22  43 W14       30.02S
PETERSBURG       N/A     29  23  78 CALM      30.05S
$$




USA.gov is the U.S. government's official web portal to all federal, state and local government web resources and services.